SES-20

Last updated on Mon Sep 21 2026 00:03:02 GMT+0000 (Coordinated Universal Time)

1 53960U 22123A 26263.50250583 -.00000105 00000+0 00000+0 0 9995 2 53960 0.0290 87.4671 0001893 19.3377 330.4034 1.00271333 14484
UTC large
Height (km)
Speed (km/s)
/
Latitude / Longitude
Inclination (degrees)
Orbital Period (minutes)
Azimuth
Elevation
Range (km)
Doppler Factor

Next 0 passes for location: London (51.5072 / 0.1276)

No passes found over London.
SES-20